CW3375 Weather Reports


Display with metric or nautical units.
time (UTC)temp
F
wind
direction
speed
MPH
gust
MPH
rain 1hr
in
rain 24hr
in
rain mn
in
humidity
%
barometer
mb
20260506181335 56 220 6.0 11.0 0.00 0.00 0.00 95 1018.5
20260506180635 56 147 6.0 14.0 0.00 0.00 0.00 95 1018.5
20260506175934 56 132 7.0 14.0 0.00 0.00 0.00 95 1018.5
20260506175234 55 200 4.0 12.0 0.00 0.00 0.00 95 1018.5
20260506174535 55 206 7.0 12.0 0.00 0.00 0.00 95 1018.4
20260506173835 55 135 6.0 12.0 0.00 0.00 0.00 95 1018.4
20260506173135 55 144 4.0 12.0 0.00 0.00 0.00 95 1018.3
20260506172434 55 139 6.0 10.0 0.00 0.00 0.00 95 1018.2
20260506171735 55 129 7.0 10.0 0.00 0.00 0.00 95 1018.2
20260506171034 54 177 5.0 13.0 0.00 0.00 0.00 95 1018.2
20260506170335 54 146 6.0 13.0 0.00 0.00 0.00 95 1018.1
20260506165635 54 185 5.0 13.0 0.00 0.00 0.00 95 1018.1
20260506164934 54 186 7.0 13.0 0.00 0.00 0.00 95 1018.1
20260506164234 54 154 5.0 12.0 0.00 0.00 0.00 95 1018.2
20260506163535 54 148 5.0 11.0 0.00 0.00 0.00 95 1018.2
20260506162917 54 126 4.0 11.0 0.00 0.00 0.00 95 1018.2
20260506162134 54 154 3.0 11.0 0.00 0.00 0.00 95 1018.3
20260506161434 53 189 7.0 16.0 0.00 0.00 0.00 95 1018.2
20260506160734 53 201 5.0 13.0 0.00 0.00 0.00 95 1018.2
20260506160117 53 177 5.0 13.0 0.00 0.00 0.00 95 1018.3
20260506155417 53 199 8.0 12.0 0.00 0.00 0.00 95 1018.3
20260506154635 53 191 5.0 12.0 0.00 0.00 0.00 95 1018.2
20260506153934 53 149 6.0 14.0 0.00 0.00 0.00 95 1018.2
20260506153234 53 164 3.0 9.0 0.00 0.00 0.00 95 1018.1
20260506152535 53 185 5.0 10.0 0.00 0.00 0.00 95 1018.0
20260506151835 53 182 6.0 14.0 0.00 0.00 0.00 95 1017.9
20260506151134 53 192 5.0 16.0 0.00 0.00 0.00 95 1017.9
20260506150435 53 187 6.0 16.0 0.00 0.00 0.00 95 1017.7
20260506145817 52 170 6.0 13.0 0.00 0.00 0.00 95 1017.6
20260506145034 52 173 7.0 13.0 0.00 0.00 0.00 95 1017.6
20260506144335 52 197 6.0 13.0 0.00 0.00 0.00 94 1017.5
20260506143717 52 137 6.0 13.0 0.00 0.00 0.00 94 1017.4
20260506142935 52 147 6.0 14.0 0.00 0.00 0.00 95 1017.3
20260506142235 52 156 5.0 16.0 0.00 0.00 0.00 95 1017.3
20260506141534 52 140 5.0 13.0 0.00 0.00 0.00 94 1017.3
20260506140834 52 140 5.0 13.0 0.00 0.00 0.00 94 1017.3
20260506140135 52 137 8.0 11.0 0.00 0.00 0.00 94 1017.4
20260506135435 52 167 5.0 14.0 0.00 0.00 0.00 94 1017.4
20260506134734 52 156 4.0 13.0 0.00 0.00 0.00 94 1017.3
20260506134035 52 161 5.0 14.0 0.00 0.00 0.00 94 1017.1
20260506133334 52 144 6.0 13.0 0.00 0.00 0.00 94 1017.0
20260506132634 52 141 9.0 13.0 0.00 0.00 0.00 94 1016.9
20260506131934 51 147 7.0 15.0 0.00 0.00 0.00 94 1016.7
20260506131317 51 167 7.0 16.0 0.00 0.00 0.00 94 1016.7
20260506130534 51 139 7.0 16.0 0.00 0.00 0.00 94 1016.7
20260506125834 51 137 8.0 17.0 0.00 0.00 0.00 94 1016.7
20260506125134 51 144 8.0 17.0 0.00 0.00 0.00 94 1016.8
20260506124434 51 139 6.0 13.0 0.00 0.00 0.00 94 1016.7
20260506123734 51 167 4.0 12.0 0.00 0.00 0.00 94 1016.8
20260506123035 51 151 5.0 11.0 0.00 0.00 0.00 94 1016.8
20260506122334 51 144 5.0 16.0 0.00 0.00 0.00 94 1016.8
20260506121634 51 152 4.0 16.0 0.00 0.00 0.00 94 1016.8
20260506120934 51 162 6.0 18.0 0.00 0.00 0.00 94 1016.6
20260506120234 51 168 7.0 18.0 0.00 0.00 0.00 94 1016.4
20260506115534 51 186 5.0 10.0 0.00 0.00 0.00 94 1016.4
20260506114834 51 152 5.0 15.0 0.00 0.00 0.00 94 1016.3
20260506114135 51 145 6.0 14.0 0.00 0.00 0.00 94 1016.2
20260506113434 51 146 5.0 14.0 0.00 0.00 0.00 94 1016.1
20260506112734 51 138 7.0 17.0 0.00 0.00 0.00 94 1016.1
20260506112034 51 149 5.0 12.0 0.00 0.00 0.00 94 1016.1
20260506111334 51 141 6.0 10.0 0.00 0.00 0.00 94 1016.1
20260506110634 51 190 6.0 12.0 0.00 0.00 0.00 94 1016.0
20260506105935 51 172 5.0 12.0 0.00 0.00 0.00 94 1015.9
20260506105317 50 160 5.0 15.0 0.00 0.00 0.00 94 1015.8
20260506104535 50 160 7.0 15.0 0.00 0.00 0.00 94 1015.7
20260506103834 50 142 6.0 9.0 0.00 0.00 0.00 94 1015.6
20260506103135 50 155 6.0 12.0 0.00 0.00 0.00 94 1015.5
20260506102435 51 141 5.0 11.0 0.00 0.00 0.00 94 1015.6
20260506101735 51 183 7.0 19.0 0.00 0.00 0.00 94 1015.6
20260506101035 51 162 5.0 11.0 0.00 0.00 0.00 94 1015.5
20260506100335 51 159 6.0 13.0 0.00 0.00 0.00 94 1015.3
20260506095635 51 166 5.0 19.0 0.00 0.00 0.00 94 1015.3
20260506094935 51 182 7.0 17.0 0.00 0.00 0.00 94 1015.3
20260506094317 51 170 9.0 16.0 0.00 0.00 0.00 94 1015.4
20260506093617 51 157 9.0 16.0 0.00 0.00 0.00 94 1015.3
20260506092834 51 176 8.0 14.0 0.00 0.00 0.00 94 1015.2
20260506092135 51 167 7.0 14.0 0.00 0.00 0.00 94 1015.1
20260506091517 51 170 5.0 17.0 0.00 0.00 0.00 94 1015.1
20260506090817 51 163 5.0 13.0 0.00 0.00 0.00 94 1015.1
20260506090117 51 151 7.0 13.0 0.00 0.00 0.00 94 1015.0
20260506085334 51 141 7.0 14.0 0.00 0.00 0.00 94 1015.0
20260506084635 51 164 8.0 14.0 0.00 0.00 0.00 94 1015.0
20260506083935 52 153 6.0 12.0 0.00 0.00 0.00 94 1015.0
20260506083234 52 154 5.0 13.0 0.00 0.00 0.00 94 1015.0
20260506082617 52 164 5.0 12.0 0.00 0.00 0.00 94 1015.0
20260506081834 52 162 6.0 13.0 0.00 0.00 0.00 94 1014.9
20260506081134 52 145 7.0 15.0 0.00 0.00 0.00 94 1014.9
20260506080434 52 176 6.0 11.0 0.00 0.00 0.00 94 1014.8
20260506072934 53 181 7.0 19.0 0.00 0.00 0.00 95 1014.4
20260506072235 53 185 6.0 15.0 0.00 0.00 0.00 95 1014.4
20260506071534 53 186 7.0 13.0 0.00 0.00 0.00 95 1014.4
20260506070834 53 195 7.0 17.0 0.00 0.00 0.00 95 1014.5
20260506070134 53 197 6.0 15.0 0.00 0.00 0.00 95 1014.5
20260506061934 54 200 6.0 11.0 0.00 0.00 0.00 95 1014.1
20260506061317 54 191 7.0 11.0 0.00 0.00 0.00 95 1014.1
20260506060534 54 192 5.0 13.0 0.00 0.00 0.00 95 1014.1
20260506051017 55 210 5.0 11.0 0.00 0.00 0.00 95 1013.9
20260506050234 55 206 6.0 13.0 0.00 0.00 0.00 95 1013.8
20260506044917 55 195 6.0 12.0 0.00 0.00 0.00 95 1013.7
20260506044134 55 193 4.0 10.0 0.00 0.00 0.00 95 1013.6
20260506043434 55 198 7.0 12.0 0.00 0.00 0.00 95 1013.5
20260506042734 56 194 6.0 12.0 0.00 0.00 0.00 95 1013.4
20260506042116 56 194 6.0 13.0 0.00 0.00 0.00 95 1013.4
20260506041334 56 197 7.0 12.0 0.00 0.00 0.00 95 1013.4
20260506040717 56 175 5.0 11.0 0.00 0.00 0.00 95 1013.2
20260506035934 56 174 4.0 12.0 0.00 0.00 0.00 95 1013.1
20260506035234 56 190 6.0 14.0 0.00 0.00 0.00 95 1013.0
20260506034534 56 165 5.0 13.0 0.00 0.00 0.00 95 1012.9
20260506033834 57 159 4.0 14.0 0.00 0.00 0.00 95 1012.9
20260506033135 57 184 6.0 14.0 0.00 0.00 0.00 95 1012.9
20260506032516 57 168 6.0 10.0 0.00 0.00 0.00 96 1012.8
20260506031735 57 166 4.0 11.0 0.00 0.00 0.00 96 1012.8
20260506031034 58 139 5.0 11.0 0.00 0.00 0.00 96 1012.7
20260506030417 59 140 6.0 14.0 0.00 0.00 0.00 96 1012.7
20260506025634 59 168 4.0 12.0 0.00 0.00 0.00 96 1012.7
20260506024934 60 164 4.0 9.0 0.00 0.00 0.00 96 1012.7
20260506024316 60 143 4.0 13.0 0.00 0.00 0.00 96 1012.6
20260506023534 61 139 6.0 16.0 0.00 0.00 0.00 96 1012.7
20260506022834 61 169 6.0 16.0 0.00 0.00 0.00 96 1012.7
20260506022216 61 181 5.0 14.0 0.00 0.00 0.00 96 1012.7
20260506021434 62 174 5.0 13.0 0.00 0.00 0.00 96 1012.7
20260506020734 62 187 6.0 17.0 0.00 0.00 0.00 96 1012.7
20260506020117 62 200 9.0 17.0 0.00 0.00 0.00 97 1012.7
20260506015334 62 208 9.0 16.0 0.00 0.00 0.00 97 1012.8
20260506014634 62 202 7.0 19.0 0.00 0.00 0.00 97 1012.9
20260506013934 62 199 6.0 14.0 0.00 0.00 0.00 97 1012.9
20260506013234 63 176 7.0 13.0 0.00 0.00 0.00 97 1012.8
20260506012616 63 172 7.0 13.0 0.00 0.00 0.00 97 1012.8
20260506011917 63 168 8.0 13.0 0.00 0.00 0.00 97 1012.8
20260506011134 64 165 7.0 13.0 0.00 0.00 0.00 97 1012.8
20260506010434 64 153 5.0 12.0 0.00 0.00 0.00 97 1012.8
20260506005734 64 171 6.0 14.0 0.00 0.00 0.00 97 1012.9
20260506005034 65 153 6.0 17.0 0.00 0.00 0.00 97 1012.9
20260506004334 65 162 7.0 22.0 0.00 0.00 0.00 97 1012.9
20260506003634 66 181 7.0 17.0 0.00 0.00 0.00 97 1012.9
20260506002934 66 157 7.0 16.0 0.00 0.00 0.00 97 1013.0
20260506002316 66 182 7.0 13.0 0.00 0.00 0.00 97 1013.0
20260506001534 66 144 7.0 15.0 0.00 0.00 0.00 97 1013.1
20260506000834 67 139 8.0 19.0 0.00 0.00 0.00 97 1013.1
20260506000219 67 186 6.0 15.0 0.00 0.00 0.00 97 1013.2
20260505235434 67 177 7.0 16.0 0.00 0.00 0.00 97 1013.2
20260505234817 66 181 10.0 19.0 0.00 0.00 0.00 97 1013.3
20260505234034 66 191 10.0 23.0 0.00 0.00 0.00 97 1013.4
20260505233334 66 173 11.0 23.0 0.00 0.00 0.00 97 1013.4
20260505232634 66 164 11.0 20.0 0.00 0.00 0.00 97 1013.5
20260505231934 67 188 12.0 19.0 0.00 0.00 0.00 97 1013.5
20260505231317 67 202 10.0 19.0 0.00 0.00 0.00 97 1013.6
20260505230534 68 194 11.0 21.0 0.00 0.00 0.00 98 1013.6
20260505225834 68 156 9.0 18.0 0.00 0.00 0.00 98 1013.7
20260505225134 68 196 8.0 21.0 0.00 0.00 0.00 98 1013.7
20260505224434 69 210 13.0 21.0 0.00 0.00 0.00 98 1013.8
20260505223734 69 190 6.0 18.0 0.00 0.00 0.00 98 1013.8
20260505223034 68 168 9.0 18.0 0.00 0.00 0.00 98 1013.9
20260505222333 68 193 9.0 18.0 0.00 0.00 0.00 98 1013.9
20260505221717 68 197 10.0 18.0 0.00 0.00 0.00 98 1013.9
20260505220934 68 179 9.0 18.0 0.00 0.00 0.00 98 1013.9
20260505220316 68 209 11.0 18.0 0.00 0.00 0.00 98 1013.9
20260505215534 69 161 8.0 17.0 0.00 0.00 0.00 98 1013.9
20260505214834 68 167 8.0 19.0 0.00 0.00 0.00 98 1014.0
20260505214134 69 202 12.0 19.0 0.00 0.00 0.00 98 1014.0
20260505213434 69 162 7.0 18.0 0.00 0.00 0.00 98 1014.1
20260505212734 68 182 6.0 19.0 0.00 0.00 0.00 98 1014.3
20260505212117 68 203 12.0 21.0 0.00 0.00 0.00 98 1014.4
20260505211416 69 190 9.0 19.0 0.00 0.00 0.00 98 1014.4
20260505210716 68 152 9.0 18.0 0.00 0.00 0.00 98 1014.4
20260505205934 68 186 9.0 19.0 0.00 0.00 0.00 98 1014.5
20260505205234 68 192 9.0 18.0 0.00 0.00 0.00 98 1014.5
20260505204533 68 195 7.0 21.0 0.00 0.00 0.00 98 1014.5
20260505203834 67 160 10.0 21.0 0.00 0.00 0.00 98 1014.5
20260505203216 67 191 8.0 17.0 0.00 0.00 0.00 97 1014.5
20260505202434 68 142 9.0 19.0 0.00 0.00 0.00 98 1014.5
20260505201734 68 138 9.0 17.0 0.00 0.00 0.00 98 1014.5
20260505201034 68 153 9.0 17.0 0.00 0.00 0.00 98 1014.5
20260505200334 67 189 8.0 17.0 0.00 0.00 0.00 98 1014.5
20260505195634 67 180 10.0 17.0 0.00 0.00 0.00 98 1014.6
20260505194934 65 168 6.0 18.0 0.00 0.00 0.00 97 1014.6
20260505194316 65 156 8.0 17.0 0.00 0.00 0.00 97 1014.6
20260505193616 65 157 8.0 17.0 0.00 0.00 0.00 97 1014.5
20260505192834 64 164 10.0 18.0 0.00 0.00 0.00 97 1014.5
20260505192134 63 188 10.0 22.0 0.00 0.00 0.00 97 1014.6
20260505191434 63 169 10.0 21.0 0.00 0.00 0.00 97 1014.6
20260505190733 63 208 11.0 21.0 0.00 0.00 0.00 97 1014.6
20260505190034 63 178 9.0 17.0 0.00 0.00 0.00 97 1014.5
20260505185333 64 167 7.0 17.0 0.00 0.00 0.00 97 1014.5
20260505184634 63 189 8.0 16.0 0.00 0.00 0.00 97 1014.6
20260505183933 61 192 9.0 17.0 0.00 0.00 0.00 96 1014.6
20260505183233 61 203 8.0 21.0 0.00 0.00 0.00 96 1014.6
20260505182534 62 208 12.0 21.0 0.00 0.00 0.00 97 1014.6